Hourly Data Report for October 01, 2017

All times are specified in Local Standard Time (LST). Add 1 hour to adjust for Daylight Saving Time where and when it is observed.

LONDON CS
ONTARIO

43°02'00.000" N
81°09'00.000" W
278.00 m
6144478
71622
WSN

Download Data

Hourly Data (October 2017)
Hourly Data Report for October 1, 2017
Temp Definition
°C
Dew Point Temp Definition
°C
Rel Hum Definition
%
Wind Dir Definition
10's deg

Wind Spd Definition
km/h
Visibility Definition
km
Stn Press Definition
kPa
Hmdx Definition


Wind Chill Definition


Weather Definition


TIME
00:00 5.1 3.9 92 LegendMM LegendMM   99.63     LegendNANA
01:00 4.5 3.5 93 LegendMM LegendMM   99.62     LegendNANA
02:00 3.3 2.1 92 LegendMM LegendMM   99.62     LegendNANA
03:00 3.3 2.1 92 LegendMM LegendMM   99.60     LegendNANA
04:00 3.0 1.9 92 LegendMM LegendMM   99.59     LegendNANA
05:00 3.1 1.8 92 LegendMM LegendMM   99.59     LegendNANA
06:00 3.1 1.8 91 LegendMM LegendMM   99.61     LegendNANA
07:00 2.7 1.6 93 LegendMM LegendMM   99.65     LegendNANA
08:00 8.1 4.6 79 LegendMM LegendMM   99.65     LegendNANA
09:00 11.9 5.4 64 LegendMM LegendMM   99.66     LegendNANA
10:00 14.5 6.7 59 LegendMM LegendMM   99.63     LegendNANA
11:00 16.1 6.6 53 LegendMM LegendMM   99.56     LegendNANA
12:00 17.0 5.7 47 LegendMM LegendMM   99.50     LegendNANA
13:00 17.4 5.6 46 LegendMM LegendMM   99.44     LegendNANA
14:00 17.5 4.1 41 LegendMM LegendMM   99.37     LegendNANA
15:00 18.7 6.1 44 LegendMM LegendMM   99.30     LegendNANA
16:00 18.2 5.4 43 LegendMM LegendMM   99.24     LegendNANA
17:00 16.9 5.9 48 LegendMM LegendMM   99.22     LegendNANA
18:00 14.4 6.2 58 LegendMM LegendMM   99.24     LegendNANA
19:00 11.7 5.9 67 LegendMM LegendMM   99.25     LegendNANA
20:00 10.0 5.5 74 LegendMM LegendMM   99.27     LegendNANA
21:00 8.5 5.5 81 LegendMM LegendMM   99.29     LegendNANA
22:00 7.5 4.5 81 LegendMM LegendMM   99.29     LegendNANA
23:00 7.0 3.2 77 LegendMM LegendMM   99.32     LegendNANA

Notes on Data Quality.

Legend

  • E = Estimated
  • M = Missing
  • NA = Not Available
  • ‡ = Partner data that is not subject to review by the National Climate Archives
Date modified: